Location: Newark
(48.3453°N, 0.5589°E)
Time: 08:40:56
(UTC+00:00)

deb Explorer IX - Visible Passes

Search period start: 14 December 2019 00:00
Search period end: 24 December 2019 00:00
Orbit: 546 x 1104 km, 38.8° (Epoch: 14 December)

Date Brightness Start Highest point End Pass type
(mag) Time Alt. Az. Time Alt. Az. Time Alt. Az.
14 Dec ? 16:38:00 10° WSW 16:43:05 34° S 16:48:51 10° ESE visible
14 Dec ? 18:24:18 10° WSW 18:29:34 30° SSW 18:33:40 17° SE visible
14 Dec ? 20:12:05 10° WSW 20:15:04 15° SW 20:15:04 15° SW visible
15 Dec ? 18:02:19 10° WSW 18:07:24 29° SSW 18:13:05 10° SE visible
15 Dec ? 19:50:09 10° WSW 19:53:41 15° SSW 19:54:37 15° SSW visible
16 Dec ? 17:40:23 10° WSW 17:45:17 28° SSW 17:50:46 10° SE visible
16 Dec ? 19:28:16 10° WSW 19:31:32 14° SSW 19:34:19 11° S visible
17 Dec ? 17:18:26 10° WSW 17:23:09 27° SSW 17:28:26 10° SE visible
17 Dec ? 19:06:25 10° WSW 19:09:22 14° SSW 19:12:28 10° S visible
18 Dec ? 16:56:31 10° WSW 17:01:01 26° SSW 17:06:06 10° SE visible
18 Dec ? 18:44:37 10° SW 18:47:13 13° SSW 18:49:56 10° S visible
19 Dec ? 16:34:36 10° WSW 16:38:55 25° SSW 16:43:45 10° SE visible
19 Dec ? 18:22:54 10° SW 18:25:04 12° SSW 18:27:20 10° S visible
20 Dec ? 18:01:19 10° SW 18:02:57 11° SSW 18:04:38 10° SSW visible
21 Dec ? 17:40:02 10° SW 17:40:49 10° SSW 17:41:37 10° SSW visible
